Terug naar catalogus

STARLINK-37254

ActiefCommunicatieVLEO
NORAD 68553·PAYLOAD·🇺🇸 United States

Gelanceerd Apr 2, 2026 vanaf Cape Canaveral Space Force Station

Loading…

Volgende Passages (komende 24 uur)

TLE

VersSource: CelesTrak SupGP

Epoch: Sep 14, 2026, 22:43 UTC

1 68553C 26070M   26257.94701389 -.00016963  00000+0 -50101-3 0  2578
2 68553  53.1574 199.6361 0001286  93.8352 328.9705 15.34408844    12

Volg STARLINK-37254 in realtime met AllMySat

Download on the App Store